When you browse on this site, cookies collect data to enhance your experience and personalize the content and advertising you see.
Visit our Privacy Policy to learn more. By continuing to use the site, you agree to this use of cookies and data.
  • în România
  • Lista ţărilor
  • Pe 7 zile
  • Temperatura apei
  • Hartă satelitară
  • Meteo pe hartă
  • Widget-uri
  • user-avatar
    Intrare

    Meteo pe oră la Sainte-Genevieve-des-Bois

    Astăzi, 16 Iunie, Duminică

    Timp Temperatura Precipitaţii Vânt Presiune Umiditate
    00:00 +12°C° 0 mm 3 m/s 757 mmHg 87%
    01:00 +12°C° 0 mm 3 m/s 757 mmHg 89%
    02:00 +12°C° 0 mm 3 m/s 757 mmHg 90%
    03:00 +11°C° 0 mm 3 m/s 758 mmHg 91%
    04:00 +12°C° 0 mm 3 m/s 758 mmHg 90%
    05:00 +12°C° 0 mm 3 m/s 758 mmHg 89%
    06:00 +13°C° 0 mm 3 m/s 758 mmHg 88%
    07:00 +14°C° 0 mm 3 m/s 758 mmHg 84%
    08:00 +16°C° 0 mm 3 m/s 758 mmHg 80%
    09:00 +17°C° 0 mm 3 m/s 759 mmHg 75%
    10:00 +19°C° 0.1 mm 3 m/s 759 mmHg 71%
    11:00 +20°C° 0.1 mm 3 m/s 759 mmHg 68%
    12:00 +21°C° 0.1 mm 3 m/s 759 mmHg 64%
    13:00 +21°C° 0.1 mm 3 m/s 759 mmHg 63%
    14:00 +22°C° 0.1 mm 3 m/s 758 mmHg 62%
    15:00 +22°C° 0.1 mm 3 m/s 758 mmHg 60%
    16:00 +22°C° 0 mm 3 m/s 758 mmHg 63%
    17:00 +21°C° 0 mm 3 m/s 758 mmHg 66%
    18:00 +21°C° 0 mm 2 m/s 758 mmHg 69%
    19:00 +19°C° 0 mm 2 m/s 758 mmHg 73%
    20:00 +19°C° 0 mm 1 m/s 758 mmHg 77%
    21:00 +18°C° 0 mm 1 m/s 758 mmHg 80%
    22:00 +16°C° 0 mm 1 m/s 758 mmHg 82%
    23:00 +16°C° 0 mm 1 m/s 758 mmHg 83%

    Mâine, 17 Iunie, Luni

    Timp Temperatura Precipitaţii Vânt Presiune Umiditate
    00:00 +15°C° 0 mm 1 m/s 758 mmHg 84%
    01:00 +14°C° 0 mm 0 m/s 758 mmHg 85%
    02:00 +13°C° 0 mm 0 m/s 758 mmHg 86%
    03:00 +13°C° 0 mm 0 m/s 757 mmHg 86%
    04:00 +14°C° 0 mm 0 m/s 757 mmHg 85%
    05:00 +15°C° 0 mm 0 m/s 757 mmHg 83%
    06:00 +16°C° 0 mm 0 m/s 758 mmHg 82%
    07:00 +17°C° 0 mm 0 m/s 758 mmHg 75%
    08:00 +19°C° 0 mm 0 m/s 758 mmHg 69%
    09:00 +21°C° 0 mm 0 m/s 758 mmHg 62%
    10:00 +22°C° 0 mm 0 m/s 757 mmHg 58%
    11:00 +23°C° 0 mm 0 m/s 757 mmHg 53%
    12:00 +27°C° 0 mm 1 m/s 757 mmHg 48%
    13:00 +27°C° 0 mm 1 m/s 757 mmHg 48%
    14:00 +27°C° 0 mm 1 m/s 756 mmHg 47%
    15:00 +27°C° 0 mm 1 m/s 756 mmHg 46%
    16:00 +26°C° 0 mm 1 m/s 756 mmHg 51%
    17:00 +26°C° 0 mm 1 m/s 755 mmHg 56%
    18:00 +25°C° 0 mm 1 m/s 755 mmHg 61%
    19:00 +24°C° 0 mm 1 m/s 755 mmHg 65%
    20:00 +22°C° 0 mm 1 m/s 755 mmHg 69%
    21:00 +21°C° 0 mm 1 m/s 756 mmHg 73%
    22:00 +20°C° 0 mm 1 m/s 755 mmHg 75%
    23:00 +19°C° 0 mm 1 m/s 755 mmHg 78%

    Poimâine, 18 Iunie, Marţi

    Timp Temperatura Precipitaţii Vânt Presiune Umiditate
    00:00 +19°C° 0 mm 1 m/s 755 mmHg 81%
    01:00 +18°C° 0 mm 1 m/s 755 mmHg 82%
    02:00 +18°C° 0 mm 1 m/s 755 mmHg 84%
    03:00 +17°C° 0 mm 2 m/s 754 mmHg 86%
    04:00 +17°C° 0 mm 2 m/s 754 mmHg 85%
    05:00 +17°C° 0 mm 2 m/s 754 mmHg 83%
    06:00 +18°C° 0 mm 2 m/s 754 mmHg 82%
    07:00 +19°C° 0 mm 2 m/s 754 mmHg 77%
    08:00 +21°C° 0 mm 2 m/s 754 mmHg 72%
    09:00 +24°C° 0 mm 2 m/s 754 mmHg 67%
    10:00 +25°C° 0 mm 2 m/s 754 mmHg 61%
    11:00 +26°C° 0 mm 2 m/s 753 mmHg 55%
    12:00 +28°C° 0 mm 2 m/s 753 mmHg 50%
    13:00 +28°C° 0 mm 2 m/s 753 mmHg 50%
    14:00 +28°C° 0 mm 2 m/s 752 mmHg 50%
    15:00 +28°C° 0 mm 3 m/s 752 mmHg 50%
    16:00 +28°C° 0 mm 2 m/s 752 mmHg 54%
    17:00 +27°C° 0 mm 2 m/s 752 mmHg 58%
    18:00 +27°C° 0 mm 2 m/s 751 mmHg 62%
    19:00 +25°C° 0 mm 2 m/s 752 mmHg 64%
    20:00 +24°C° 0 mm 2 m/s 752 mmHg 67%
    21:00 +21°C° 0 mm 2 m/s 752 mmHg 69%
    22:00 +21°C° 0 mm 2 m/s 751 mmHg 71%
    23:00 +20°C° 0 mm 2 m/s 751 mmHg 74%

    19 Iunie, Miercuri

    Timp Temperatura Precipitaţii Vânt Presiune Umiditate
    00:00 +20°C° 0 mm 2 m/s 751 mmHg 76%
    01:00 +19°C° 0 mm 2 m/s 750 mmHg 79%
    02:00 +19°C° 0 mm 2 m/s 750 mmHg 82%
    03:00 +18°C° 0 mm 2 m/s 750 mmHg 86%
    04:00 +19°C° 0.1 mm 2 m/s 749 mmHg 85%
    05:00 +19°C° 0.1 mm 2 m/s 749 mmHg 84%
    06:00 +20°C° 0.1 mm 2 m/s 749 mmHg 83%
    07:00 +23°C° 0 mm 2 m/s 749 mmHg 77%
    08:00 +25°C° 0 mm 2 m/s 749 mmHg 72%
    09:00 +26°C° 0 mm 2 m/s 749 mmHg 66%
    10:00 +28°C° 0 mm 2 m/s 749 mmHg 62%
    11:00 +29°C° 0 mm 3 m/s 749 mmHg 58%
    12:00 +30°C° 0 mm 3 m/s 749 mmHg 54%
    13:00 +29°C° 0.3 mm 4 m/s 749 mmHg 55%
    14:00 +29°C° 0.3 mm 5 m/s 749 mmHg 57%
    15:00 +29°C° 0.3 mm 6 m/s 748 mmHg 58%
    16:00 +28°C° 0.4 mm 6 m/s 749 mmHg 63%
    17:00 +26°C° 0.4 mm 6 m/s 749 mmHg 68%
    18:00 +25°C° 0.4 mm 5 m/s 749 mmHg 72%
    19:00 +22°C° 0.1 mm 5 m/s 750 mmHg 75%
    20:00 +21°C° 0.1 mm 5 m/s 750 mmHg 78%
    21:00 +20°C° 0.1 mm 4 m/s 751 mmHg 81%
    22:00 +19°C° 0 mm 4 m/s 751 mmHg 82%
    23:00 +18°C° 0 mm 4 m/s 751 mmHg 84%

    20 Iunie, Joi

    Timp Temperatura Precipitaţii Vânt Presiune Umiditate
    00:00 +17°C° 0 mm 4 m/s 751 mmHg 86%
    01:00 +15°C° 0 mm 4 m/s 751 mmHg 87%
    02:00 +16°C° 0 mm 3 m/s 751 mmHg 88%
    03:00 +14°C° 0 mm 3 m/s 752 mmHg 89%
    04:00 +16°C° 0 mm 3 m/s 752 mmHg 89%
    05:00 +16°C° 0 mm 3 m/s 752 mmHg 88%
    06:00 +17°C° 0 mm 3 m/s 752 mmHg 87%
    07:00 +17°C° 0.1 mm 3 m/s 753 mmHg 84%
    08:00 +18°C° 0.1 mm 3 m/s 753 mmHg 82%
    09:00 +19°C° 0.1 mm 3 m/s 753 mmHg 79%
    10:00 +20°C° 0.3 mm 3 m/s 753 mmHg 75%
    11:00 +21°C° 0.3 mm 3 m/s 753 mmHg 71%
    12:00 +22°C° 0.3 mm 3 m/s 753 mmHg 68%
    13:00 +22°C° 0.7 mm 3 m/s 753 mmHg 69%
    14:00 +21°C° 0.7 mm 3 m/s 753 mmHg 70%
    15:00 +21°C° 0.7 mm 3 m/s 753 mmHg 71%
    16:00 +21°C° 0.8 mm 2 m/s 753 mmHg 72%
    17:00 +21°C° 0.8 mm 2 m/s 753 mmHg 74%
    18:00 +20°C° 0.8 mm 2 m/s 753 mmHg 76%
    19:00 +19°C° 0.1 mm 2 m/s 753 mmHg 77%
    20:00 +18°C° 0.1 mm 2 m/s 754 mmHg 77%
    21:00 +17°C° 0.1 mm 2 m/s 754 mmHg 78%
    22:00 +17°C° 0 mm 2 m/s 754 mmHg 79%
    23:00 +17°C° 0 mm 2 m/s 754 mmHg 80%

    21 Iunie, Vineri

    Timp Temperatura Precipitaţii Vânt Presiune Umiditate
    00:00 +16°C° 0 mm 2 m/s 754 mmHg 81%
    01:00 +16°C° 0 mm 3 m/s 754 mmHg 79%
    02:00 +14°C° 0 mm 3 m/s 754 mmHg 77%
    03:00 +14°C° 0 mm 3 m/s 754 mmHg 75%
    04:00 +14°C° 0 mm 3 m/s 755 mmHg 76%
    05:00 +15°C° 0 mm 2 m/s 755 mmHg 76%
    06:00 +15°C° 0 mm 2 m/s 755 mmHg 77%
    07:00 +16°C° 0 mm 2 m/s 755 mmHg 70%
    08:00 +17°C° 0 mm 2 m/s 756 mmHg 63%
    09:00 +19°C° 0 mm 2 m/s 756 mmHg 57%
    10:00 +20°C° 0 mm 2 m/s 756 mmHg 54%
    11:00 +21°C° 0 mm 2 m/s 756 mmHg 51%
    12:00 +21°C° 0 mm 3 m/s 756 mmHg 48%
    13:00 +21°C° 0 mm 3 m/s 756 mmHg 49%
    14:00 +21°C° 0 mm 3 m/s 756 mmHg 49%
    15:00 +21°C° 0 mm 3 m/s 756 mmHg 50%
    16:00 +21°C° 0 mm 3 m/s 756 mmHg 53%
    17:00 +20°C° 0 mm 3 m/s 756 mmHg 56%
    18:00 +20°C° 0 mm 2 m/s 756 mmHg 59%
    19:00 +18°C° 0 mm 2 m/s 757 mmHg 64%
    20:00 +17°C° 0 mm 2 m/s 757 mmHg 68%
    21:00 +16°C° 0 mm 2 m/s 757 mmHg 72%
    22:00 +15°C° 0 mm 2 m/s 757 mmHg 75%
    23:00 +15°C° 0 mm 2 m/s 758 mmHg 77%
    Arată mai mult